SCP
2 2 3 3 4 4 4 3 4 4 4 4 3 2 2 2 2 2 1 1 2 2 2 2 2 2 1 1 1 1 1 1 1 0 0 1 1 1 1 1 1 1 1
2 2 3 3 4 4 3 3 3 4 4 3 3 3 2 2 2 2 1 1 1 2 2 2 2 1 1 1 1 1 1 1 1 0 0 0 1 1 1 1 1 1 0
2 3 4 4 4 4 3 3 3 3 3 3 3 3 2 2 2 2 2 2 1 2 2 1 1 1 1 1 1 1 1 1 1 1 0 1 1 1 1 1 1 1 0
3 4 5 4 4 4 4 3 3 3 3 3 3 3 3 2 2 2 2 2 2 2 2 1 1 1 1 1 1 1 1 1 1 1 1 1 1 1 1 1 1 1 1
4 4 4 4 3 3 4 3 3 3 3 3 3 3 3 2 2 2 2 2 2 2 2 2 1 1 1 1 1 1 2 2 2 2 2 2 2 2 2 2 1 1 1
4 4 4 3 3 3 4 4 4 3 3 3 3 3 3 2 1 1 2 2 3 3 2 2 2 1 1 1 1 1 1 1 2 2 2 2 2 3 3 2 2 1 1
3 4 4 4 4 4 5 5 5 5 4 4 4 3 3 2 1 0 1 2 2 3 2 2 2 1 1 1 1 0 0 1 1 1 2 2 2 3 3 3 2 2 2
3 3 3 4 5 5 5 5 5 5 5 4 4 3 2 2 1 0 1 1 2 2 2 2 2 2 2 1 1 1 1 1 0 1 1 1 2 2 3 3 3 3 3
3 3 3 3 4 4 4 5 5 5 5 4 4 3 3 2 1 0 0 1 2 2 2 2 2 2 1 1 1 1 2 1 1 1 0 1 1 1 1 2 3 3 3
4 4 4 3 3 4 4 4 4 5 5 5 4 4 3 2 1 0 0 1 2 2 2 2 1 1 1 0 1 1 2 2 2 1 1 1 1 1 1 2 3 3 3
6 5 5 4 3 3 3 3 3 4 4 4 4 3 3 2 1 0 0 1 2 2 2 2 1 1 0 0 0 1 2 2 2 2 2 2 2 2 2 2 3 3 4
7 6 5 3 3 3 3 3 3 3 3 3 2 2 2 1 1 0 0 0 1 1 1 1 1 0 0 0 0 0 1 1 1 2 2 2 2 2 2 2 3 3 3
5 5 3 3 2 2 2 2 2 2 2 2 2 2 2 1 1 1 0 0 0 0 0 1 0 0 0 0 0 0 0 0 1 1 1 2 2 2 2 2 2 2 2
3 3 2 2 1 1 1 2 2 2 2 2 1 2 2 2 1 1 0 0 0 0 0 0 0 0 0 0 0 0 0 0 1 1 1 1 1 1 1 1 1 1 1
2 2 2 1 1 1 1 1 1 1 1 1 1 1 2 2 1 1 0 0 0 0 0 0 0 0 0 0 0 0 0 1 1 1 1 1 1 1 1 1 1 1 1
2 2 1 1 1 1 1 1 0 0 1 0 0 1 1 1 0 0 0 0 0 0 0 0 1 1 1 1 1 1 1 1 1 1 1 1 1 1 1 1 1 1 1
2 2 2 1 1 1 1 0 0 0 0 0 0 0 0 0 0 0 0 0 0 0 0 0 1 1 1 1 1 1 1 1 1 1 1 1 1 1 1 1 1 1 1
1 1 1 1 1 1 0 0 0 0 0 0 0 0 0 0 0 0 0 0 0 0 0 1 1 1 1 1 1 1 1 1 1 1 1 1 1 1 1 1 1 1 1
0 0 0 0 0 0 0 0 0 0 0 0 0 0 0 0 0 0 0 0 0 0 0 1 1 1 1 1 1 1 1 1 1 1 1 1 1 1 1 1 1 1 0
0 0 0 0 0 0 0 0 0 0 0 0 0 0 0 0 0 0 0 0 0 0 1 1 1 1 1 1 1 1 1 1 1 1 1 1 1 1 1 1 0 0 0
0 0 0 0 0 0 0 0 0 0 0 0 0 0 0 0 0 0 0 0 0 1 1 1 1 1 1 1 1 1 1 1 1 1 1 1 1 1 1 1 1 0 0
0 0 0 0 0 0 0 0 0 0 0 0 0 0 0 0 0 0 0 0 1 1 1 1 1 1 1 1 1 1 1 1 1 1 1 1 1 1 0 0 0 0 0
0 0 0 0 0 0 0 0 0 0 0 0 0 0 0 0 0 0 0 0 1 1 1 1 1 1 1 1 1 1 1 1 1 1 1 1 1 0 0 0 0 0 0
0 0 0 0 0 0 0 0 0 0 0 0 0 0 0 0 0 0 0 0 0 0 1 1 1 1 1 1 1 1 1 0 0 0 0 0 0 0 0 0 0 0 0
0 0 0 0 0 0 0 0 0 0 0 0 0 0 0 0 0 0 0 0 0 0 0 1 1 1 1 1 1 0 0 0 0 0 0 0 0 0 0 0 0 0 0
0 0 0 0 0 0 0 0 0 0 0 0 0 0 0 0 0 0 0 0 0 0 0 1 1 1 0 0 0 0 0 0 0 0 0 0 0 0 0 0 0 0 0
Wind_Speed
11 11 10 11 11 11 10 10 9 9 10 10 10 10 10 10 10 9 9 8 9 8 7 7 8 6 5 5 5 5 5 5 6 5 3 3 4 7 4 6 7 8 8
11 11 11 10 10 10 10 10 10 10 10 10 10 10 10 10 10 10 10 9 9 9 9 8 8 7 7 7 5 6 5 5 6 7 5 5 6 7 6 7 8 7 8
11 11 11 11 10 10 10 10 10 10 10 10 10 10 10 10 10 10 10 9 9 9 9 9 9 8 8 7 7 7 6 6 6 7 7 5 5 6 6 8 9 7 9
10 11 11 11 10 10 9 9 9 9 9 9 10 10 10 10 10 10 10 9 9 9 9 9 9 9 10 9 8 8 7 7 7 8 8 6 6 6 6 7 7 7 8
10 10 10 10 10 9 9 9 8 8 9 9 9 9 9 9 9 9 9 10 9 10 9 10 10 9 8 8 8 8 8 8 8 8 8 7 7 5 6 7 7 7 7
10 9 9 9 9 9 9 8 8 8 8 8 9 9 9 8 7 7 8 9 9 10 10 10 10 10 10 10 10 9 9 10 10 8 8 8 7 7 6 7 7 8 8
8 8 8 9 9 9 9 9 9 9 9 8 8 8 8 7 7 9 10 8 9 8 9 8 9 8 10 11 12 13 13 13 12 11 11 11 9 7 7 8 8 9 9
8 8 8 8 8 8 8 8 8 7 8 8 8 8 8 7 8 9 9 10 9 8 8 9 9 9 8 8 9 11 11 11 12 11 11 10 9 6 6 8 9 10 11
7 7 6 6 7 7 7 7 7 6 6 7 7 7 7 5 7 8 8 7 7 8 8 8 9 9 6 6 9 10 10 9 8 8 8 8 7 7 7 7 9 9 10
6 5 5 5 5 5 5 5 4 5 5 5 4 4 4 4 5 7 8 6 6 6 6 6 6 6 4 6 8 9 10 8 6 6 7 8 9 10 11 10 9 9 10
6 6 5 4 4 4 3 3 3 3 3 2 2 1 1 0 2 4 6 5 5 5 4 4 3 5 5 5 6 7 6 5 5 7 7 7 7 7 8 9 9 9 10
6 6 6 5 4 4 4 3 3 2 3 2 2 2 1 1 1 3 4 5 4 4 4 3 1 3 5 6 6 5 4 5 6 7 7 7 7 7 7 7 8 10 10
8 8 7 6 5 4 4 4 3 2 2 2 1 1 1 1 2 4 4 4 4 3 2 1 1 2 4 6 8 7 6 6 6 7 7 7 7 7 7 7 9 10 12
9 8 7 7 6 6 3 3 3 2 2 1 1 0 0 0 1 1 2 3 4 3 2 2 4 5 5 4 4 6 6 5 6 7 7 7 7 7 7 8 8 8 9
9 8 7 7 6 6 6 6 5 5 4 2 2 1 1 1 4 4 2 1 1 1 2 3 4 3 4 4 5 5 5 6 7 7 7 7 7 7 8 7 8 9 10
7 6 6 5 5 5 5 6 8 6 6 6 6 4 4 5 3 3 3 3 2 1 4 4 4 4 5 5 5 5 6 7 7 7 7 8 8 8 8 8 8 9 10
8 7 5 5 5 4 4 3 3 4 4 4 4 3 3 2 1 1 1 2 4 4 6 5 5 5 5 5 6 6 6 6 6 7 7 8 8 8 8 9 9 9 10
8 7 6 5 5 4 4 3 2 2 1 2 4 4 3 2 3 3 3 5 5 6 6 6 6 6 6 6 6 7 7 7 6 7 8 8 8 9 9 9 9 11 10
7 6 5 4 4 3 3 3 3 3 3 3 1 3 4 5 7 7 6 6 6 6 5 5 6 6 6 7 7 7 8 7 8 8 8 9 9 9 9 10 10 11 11
6 7 5 3 3 3 3 3 3 3 3 3 4 4 3 4 4 3 4 5 6 7 7 7 6 7 7 7 7 8 8 8 8 8 9 9 9 9 10 12 11 10 10
4 4 2 3 4 4 4 4 3 4 4 4 4 4 4 7 6 6 6 5 6 6 7 7 8 8 8 7 7 8 9 8 8 9 8 8 9 9 9 10 11 11 11
3 3 4 4 4 4 5 4 4 4 5 5 5 3 1 5 6 6 6 6 6 6 7 7 7 7 7 8 8 9 9 9 9 9 9 9 9 9 10 10 10 10 11
4 4 4 4 4 3 4 4 5 5 6 6 6 6 6 6 6 7 7 7 7 7 7 7 8 8 8 7 8 8 9 9 9 9 10 10 10 10 10 11 13 13 12
5 5 5 5 5 5 5 5 5 6 6 6 6 6 6 6 7 7 7 7 8 8 8 8 8 11 12 10 8 8 7 7 9 9 12 12 12 11 11 11 12 14 13
5 5 5 5 5 5 5 6 6 6 7 7 7 7 7 7 7 7 7 8 9 9 10 10 8 9 12 14 12 10 7 7 7 9 11 11 13 13 13 13 12 12 12
6 6 5 5 5 5 6 6 6 7 7 7 7 7 8 8 8 8 8 8 9 9 10 9 11 13 15 12 12 10 7 8 8 8 9 10 11 11 12 10 13 11 12
Wind_Direction
187 190 191 191 193 193 195 195 193 192 190 193 194 196 200 202 201 205 219 203 214 214 214 212 219 239 236 231 229 237 244 253 263 264 239 224 228 262 248 251 255 252 239
185 187 189 192 193 193 194 194 191 191 194 197 197 200 204 205 204 207 215 211 215 220 219 218 220 216 221 245 242 241 244 254 261 267 261 239 226 240 250 259 261 255 266
183 185 187 190 191 193 193 192 191 192 196 197 199 204 207 209 208 211 215 216 220 225 224 222 223 222 222 228 235 242 239 234 243 258 257 253 246 240 246 249 255 259 267
181 183 186 191 192 192 193 193 193 194 196 199 203 208 210 212 213 215 215 219 224 227 228 228 228 226 225 228 230 237 245 247 241 250 256 251 245 241 246 257 258 243 255
180 183 184 187 189 190 190 192 192 196 199 201 206 208 210 212 214 213 216 218 222 226 226 228 230 231 234 235 241 233 232 238 244 245 251 254 249 247 251 258 266 270 259
181 183 180 181 182 184 186 187 189 196 201 200 204 207 208 213 190 198 222 227 224 228 230 229 230 222 225 228 245 256 257 247 250 255 257 258 260 259 261 266 271 272 275
175 178 176 177 179 183 185 187 190 192 195 200 205 208 211 208 178 193 210 233 233 232 233 235 240 230 219 229 226 229 241 246 248 256 263 266 269 268 273 269 268 275 280
171 174 175 177 178 181 185 188 191 192 194 198 202 208 211 202 179 192 201 222 237 236 236 238 242 248 237 235 240 236 236 236 233 235 249 260 269 280 273 272 278 273 268
163 165 169 173 176 180 185 189 189 191 195 202 204 209 212 200 178 191 202 222 230 238 239 239 241 243 226 218 242 248 247 245 236 230 242 257 274 275 270 269 267 269 273
150 147 147 155 164 171 177 181 180 189 198 201 201 206 212 219 179 187 206 232 237 240 237 238 234 237 223 211 240 249 251 252 257 244 239 245 250 247 233 237 254 263 270
129 127 126 132 136 138 146 159 170 179 177 179 164 157 174 232 152 171 201 235 245 243 246 241 225 188 217 226 242 255 261 271 266 260 256 253 249 246 240 234 239 253 265
114 110 108 108 110 115 120 121 133 149 148 142 148 168 176 184 193 159 179 219 260 256 261 268 273 171 213 228 235 245 251 257 257 255 255 256 257 256 257 257 255 257 260
103 99 97 97 92 93 108 117 123 129 136 147 169 186 182 171 155 156 169 192 220 246 276 342 319 206 223 230 227 226 230 241 249 254 258 261 264 266 268 263 258 253 254
96 95 94 92 90 79 62 69 76 78 98 131 148 162 248 212 82 118 179 193 197 215 241 212 209 220 234 253 240 224 234 249 257 261 267 271 274 271 266 268 270 270 270
91 91 90 86 82 79 70 47 42 49 35 17 27 35 357 22 44 23 346 330 323 3 275 251 245 237 237 240 247 248 248 245 247 256 266 271 271 272 274 277 277 277 275
90 85 85 86 86 88 94 88 59 59 69 61 42 25 53 61 70 52 35 18 3 304 268 259 260 259 261 261 260 257 254 257 260 266 270 273 276 278 279 279 277 274 275
76 73 73 73 78 78 78 83 97 103 101 96 91 76 64 69 68 21 328 294 267 252 256 264 268 270 272 272 271 272 272 271 274 273 273 274 276 276 276 276 274 274 274
73 71 62 63 58 55 51 45 41 35 80 120 140 149 162 187 221 241 251 261 245 230 261 278 283 283 282 283 283 284 283 281 273 272 274 278 279 278 277 277 277 277 280
60 59 50 47 47 44 33 24 24 16 357 348 359 144 180 214 219 226 232 266 288 286 281 280 283 284 284 283 284 284 281 279 280 282 281 280 279 277 277 279 280 282 279
66 55 30 24 29 30 23 10 3 354 341 338 342 352 347 299 284 260 245 276 288 296 301 299 297 295 295 293 292 288 285 283 282 279 281 283 284 284 283 283 283 283 282
51 62 32 11 28 18 7 358 352 341 339 336 337 22 352 310 309 314 310 305 305 308 309 308 305 302 298 294 291 292 291 289 288 288 289 289 289 287 285 284 283 282 282
17 21 17 16 13 7 352 338 336 336 334 331 329 339 241 296 318 324 325 327 326 321 316 311 305 306 309 308 306 303 298 295 295 296 293 291 287 286 286 284 283 284 284
4 6 7 7 359 354 325 339 341 335 335 335 333 333 334 334 332 333 331 328 326 322 320 315 308 307 312 311 305 299 297 301 306 307 303 296 292 289 287 286 285 285 284
7 5 4 1 355 352 352 349 345 343 341 341 337 334 332 330 327 330 327 327 325 321 319 317 312 310 310 307 302 300 309 320 315 306 300 293 290 287 286 284 284 284 286
9 7 3 2 2 358 356 352 351 348 344 341 339 337 336 332 330 331 332 330 327 324 323 318 313 312 313 311 308 311 333 327 309 304 297 288 284 282 282 283 284 286 285
10 7 5 4 3 359 354 351 351 347 344 342 341 338 333 330 333 334 333 332 328 325 322 320 322 322 319 314 320 328 319 305 294 285 286 284 281 279 281 280 282 282 283